Reno - Stead, NV

10:34 PM PDT on April 24, 2017 (GMT -0700)
Reno - Stead

Weather History for KRTS - November, 2012

Change the Weather History Date:

Friday, November 2, 2012

  Actual Average (KRNO) Record (KRNO)
Temperature  
Mean Temperature 42 °F -  
Max Temperature 59 °F 61 °F 76 °F (1916)
Min Temperature 24 °F 28 °F 13 °F (1961)
Degree Days  
Heating Degree Days 24    
Moisture  
Dew Point 26 °F    
Average Humidity 60    
Maximum Humidity 93    
Minimum Humidity 31    
Precipitation  
Precipitation 0.00 in - - ()
Sea Level Pressure  
Sea Level Pressure 30.14 in    
Wind  
Wind Speed 3 mph ()    
Max Wind Speed 8 mph    
Max Gust Speed -    
Visibility 10.0 miles    
Events      
Averages and records for this station are not official NWS values.
T = Trace of Precipitation, MM = Missing Value Source: Averaged Metar Reports

Daily Weather History Graph

Daily Weather History Graph

Search for Another Location

Airport or City:

Trip Planner

Search our weather history database for the weather conditions in past years. The results will help you decide how hot, cold, wet, or windy it might be!

Date:

Astronomy

Nov. 02, 2012 Rise Set
Actual Time 7:29 AM PDT 5:55 PM PDT
Civil Twilight 7:01 AM PDT 6:23 PM PDT
Nautical Twilight 6:29 AM PDT 6:55 PM PDT
Astronomical Twilight 5:58 AM PDT 7:27 PM PDT
Moon 8:47 PM PDT (11/2) 10:53 AM PDT (11/2)
Length of Visible Light 11h 22m
Length of Day
10h 26m
Waning Gibbous, 86% of the Moon is Illuminated
Nov 2
Waning Gibbous
Nov 6
Last Quarter
Nov 13
New
Nov 20
First Quarter
Nov 28
Full

Hourly Weather History & Observations

Time (PDT) Temp. Windchill Dew Point Humidity Pressure Visibility Wind Dir Wind Speed Gust Speed Precip Events Conditions
12:15 AM 32.0 °F 26.4 °F 26.6 °F 80% 30.14 in 10.0 mi North 5.8 mph - N/A   Clear
12:35 AM 32.0 °F 26.4 °F 28.4 °F 87% 30.14 in 10.0 mi NNW 5.8 mph - N/A   Clear
12:55 AM 32.0 °F 27.5 °F 26.6 °F 80% 30.14 in 10.0 mi North 4.6 mph - N/A   Clear
1:15 AM 32.0 °F 26.4 °F 26.6 °F 80% 30.14 in 10.0 mi North 5.8 mph - N/A   Clear
1:35 AM 32.0 °F 27.5 °F 26.6 °F 80% 30.14 in 10.0 mi North 4.6 mph - N/A   Clear
1:55 AM 28.4 °F 23.3 °F 24.8 °F 86% 30.15 in 10.0 mi NNW 4.6 mph - N/A   Clear
2:15 AM 30.2 °F 26.7 °F 24.8 °F 80% 30.15 in 10.0 mi NNE 3.5 mph - N/A   Clear
2:35 AM 28.4 °F 24.6 °F 24.8 °F 86% 30.15 in 10.0 mi North 3.5 mph - N/A   Clear
2:55 AM 32.0 °F 27.5 °F 26.6 °F 80% 30.15 in 10.0 mi ENE 4.6 mph - N/A   Clear
3:15 AM 32.0 °F - 26.6 °F 80% 30.15 in 10.0 mi Calm Calm - N/A   Clear
3:35 AM 30.2 °F - 26.6 °F 86% 30.15 in 10.0 mi Calm Calm - N/A   Clear
3:55 AM 28.4 °F 23.3 °F 24.8 °F 86% 30.14 in 10.0 mi NW 4.6 mph - N/A   Clear
4:15 AM 26.6 °F 22.6 °F 23.0 °F 86% 30.14 in 10.0 mi NNW 3.5 mph - N/A   Clear
4:35 AM 26.6 °F - 24.8 °F 93% 30.14 in 10.0 mi Calm Calm - N/A   Clear
4:55 AM 26.6 °F 19.1 °F 24.8 °F 93% 30.14 in 10.0 mi NNW 6.9 mph - N/A   Clear
5:15 AM 28.4 °F - 26.6 °F 93% 30.14 in 10.0 mi Calm Calm - N/A   Clear
5:35 AM 26.6 °F - 23.0 °F 86% 30.15 in 10.0 mi Calm Calm - N/A   Clear
5:55 AM 26.6 °F - 23.0 °F 86% 30.15 in 10.0 mi Calm Calm - N/A   Clear
6:15 AM 26.6 °F - 23.0 °F 86% 30.15 in 10.0 mi Calm Calm - N/A   Clear
6:35 AM 24.8 °F - 19.4 °F 80% 30.15 in 10.0 mi Calm Calm - N/A   Clear
6:55 AM 26.6 °F - 23.0 °F 86% 30.15 in 10.0 mi Calm Calm - N/A   Clear
7:15 AM 28.4 °F - 26.6 °F 93% 30.15 in 10.0 mi Calm Calm - N/A   Clear
7:35 AM 24.8 °F 20.5 °F 23.0 °F 93% 30.16 in 10.0 mi North 3.5 mph - N/A   Clear
7:55 AM 24.8 °F - 21.2 °F 86% 30.16 in 10.0 mi Calm Calm - N/A   Clear
8:15 AM 26.6 °F - 21.2 °F 80% 30.16 in 10.0 mi Calm Calm - N/A   Clear
8:35 AM 30.2 °F - 24.8 °F 80% 30.17 in 10.0 mi Calm Calm - N/A   Clear
8:55 AM 32.0 °F - 28.4 °F 87% 30.17 in 10.0 mi Calm Calm - N/A   Clear
9:15 AM 35.6 °F - 30.2 °F 81% 30.18 in 10.0 mi Calm Calm - N/A   Clear
9:35 AM 39.2 °F - 30.2 °F 70% 30.18 in 10.0 mi Calm Calm - N/A   Clear
9:55 AM 41.0 °F - 32.0 °F 70% 30.18 in 10.0 mi Calm Calm - N/A   Clear
10:15 AM 42.8 °F 41.1 °F 32.0 °F 66% 30.18 in 10.0 mi SE 3.5 mph - N/A   Clear
10:35 AM 44.6 °F 42.2 °F 32.0 °F 61% 30.17 in 10.0 mi SE 4.6 mph - N/A   Clear
10:55 AM 46.4 °F - 32.0 °F 57% 30.17 in 10.0 mi Calm Calm - N/A   Clear
11:15 AM 48.2 °F - 32.0 °F 54% 30.17 in 10.0 mi Calm Calm - N/A   Clear
11:35 AM 50.0 °F - 30.2 °F 47% 30.17 in 10.0 mi Calm Calm - N/A   Clear
11:55 AM 50.0 °F - 32.0 °F 50% 30.17 in 10.0 mi SE 3.5 mph - N/A   Clear
12:15 PM 51.8 °F - 32.0 °F 47% 30.16 in 10.0 mi SE 4.6 mph - N/A   Clear
12:55 PM 55.4 °F - 28.4 °F 36% 30.14 in 10.0 mi South 6.9 mph - N/A   Clear
1:15 PM 55.4 °F - 28.4 °F 36% 30.13 in 10.0 mi SSE 4.6 mph - N/A   Clear
1:35 PM 55.4 °F - 26.6 °F 33% 30.12 in 10.0 mi East 4.6 mph - N/A   Clear
1:55 PM 57.2 °F - 28.4 °F 33% 30.12 in 10.0 mi South 4.6 mph - N/A   Clear
2:15 PM 57.2 °F - 28.4 °F 33% 30.12 in 10.0 mi South 4.6 mph - N/A   Clear
2:35 PM 57.2 °F - 28.4 °F 33% 30.11 in 10.0 mi Calm Calm - N/A   Clear
2:55 PM 57.2 °F - 28.4 °F 33% 30.11 in 10.0 mi Calm Calm - N/A   Clear
3:15 PM 57.2 °F - 28.4 °F 33% 30.11 in 10.0 mi ESE 3.5 mph - N/A   Clear
3:35 PM 59.0 °F - 28.4 °F 31% 30.10 in 10.0 mi East 3.5 mph - N/A   Clear
3:55 PM 59.0 °F - 28.4 °F 31% 30.11 in 10.0 mi SSE 5.8 mph - N/A   Clear
4:15 PM 59.0 °F - 28.4 °F 31% 30.10 in 10.0 mi East 3.5 mph - N/A   Clear
4:35 PM 57.2 °F - 26.6 °F 31% 30.11 in 10.0 mi ESE 4.6 mph - N/A   Clear
4:55 PM 57.2 °F - 26.6 °F 31% 30.11 in 10.0 mi SE 3.5 mph - N/A   Clear
5:15 PM 57.2 °F - 26.6 °F 31% 30.11 in 10.0 mi East 3.5 mph - N/A   Clear
5:35 PM 55.4 °F - 24.8 °F 31% 30.10 in 10.0 mi East 5.8 mph - N/A   Clear
5:55 PM 53.6 °F - 26.6 °F 35% 30.10 in 10.0 mi ENE 6.9 mph - N/A   Clear
6:15 PM 51.8 °F - 24.8 °F 35% 30.11 in 10.0 mi East 4.6 mph - N/A   Clear
6:35 PM 50.0 °F - 24.8 °F 37% 30.12 in 10.0 mi NNW 3.5 mph - N/A   Clear
6:55 PM 48.2 °F - 24.8 °F 40% 30.13 in 10.0 mi Calm Calm - N/A   Clear
7:15 PM 50.0 °F - 24.8 °F 37% 30.13 in 10.0 mi Calm Calm - N/A   Clear
7:55 PM 44.6 °F - 23.0 °F 43% 30.13 in 10.0 mi Calm Calm - N/A   Clear
8:15 PM 42.8 °F 39.3 °F 23.0 °F 46% 30.14 in 10.0 mi North 5.8 mph - N/A   Clear
8:35 PM 42.8 °F 39.3 °F 23.0 °F 46% 30.14 in 10.0 mi North 5.8 mph - N/A   Clear
8:55 PM 44.6 °F 43.1 °F 24.8 °F 46% 30.14 in 10.0 mi North 3.5 mph - N/A   Clear
9:15 PM 39.2 °F 37.0 °F 21.2 °F 49% 30.15 in 10.0 mi North 3.5 mph - N/A   Clear
9:35 PM 35.6 °F 29.2 °F 19.4 °F 52% 30.15 in 10.0 mi NNW 8.1 mph - N/A   Clear
9:55 PM 37.4 °F 32.8 °F 21.2 °F 52% 30.16 in 10.0 mi NNW 5.8 mph - N/A   Clear
10:15 PM 37.4 °F 32.8 °F 21.2 °F 52% 30.16 in 10.0 mi NNW 5.8 mph - N/A   Clear
10:35 PM 39.2 °F 37.0 °F 23.0 °F 52% 30.16 in 10.0 mi North 3.5 mph - N/A   Clear
10:55 PM 37.4 °F - 23.0 °F 56% 30.16 in 10.0 mi Calm Calm - N/A   Clear
11:15 PM 37.4 °F - 21.2 °F 52% 30.17 in 10.0 mi Calm Calm - N/A   Clear
11:35 PM 37.4 °F 34.9 °F 19.4 °F 48% 30.17 in 10.0 mi NW 3.5 mph - N/A   Clear
11:55 PM 35.6 °F 32.8 °F 19.4 °F 52% 30.17 in 10.0 mi North 3.5 mph - N/A   Clear